sat.trackr.live / text

‹ back to catalog

STARLINK-1718

NORAD 46674 · 2020-073E

PAYLOAD ACTIVE UNKNOWN

§ Identity

Operator
Country
US
Launch date
2020-10-18
Launch site
AFETR
Launch vehicle
Mass (kg)
RCS (m²)

Purposes: comms

External: N2YO · Heavens-Above · Gunter

§ Orbital elements

Epoch: 2026-05-25T03:28:43.101120Z

Period
91.73 min
Inclination
53.0422°
Eccentricity
0.0002660
Mean motion
15.69791581 rev/d
Perigee alt
357.7 km
Apogee alt
361.3 km
Semi-major
6,737.6 km
B*
6.8284e-4
RAAN
213.5545°
Arg perigee
305.1143°
Mean anomaly
54.9624°
Rev number
30,928

§ Raw data

STARLINK-17181 46674U 20073E   26145.14494330  .00083272  00000+0  68284-3 0  99972 46674  53.0422 213.5545 0002660 305.1143  54.9624 15.69791581309285

JSON: /api/v1/satellites/46674 · /tle

For live sub-satellite position, see the globe view (requires WebGL).

§ Visibility from observer

Set your observer location to see the next 7 days of passes ≥ 10°. The values pass through the URL so the page stays shareable.

No JS? Fill the form by hand. The geolocation button needs JavaScript.